Powrót do katalogu

STARLINK-4776

AktywnyŁącznośćVLEO
NORAD 53837·PAYLOAD·🇺🇸 United States

Wystrzelony Sep 19, 2022 z Cape Canaveral Space Force Station

Loading…

Następne Przeloty (najbliższe 24 godziny)

TLE

ŚwieżeSource: CelesTrak SupGP

Epoka: Sep 14, 2026, 21:05 UTC

1 53837C 22114V   26257.87895833 -.00036546  00000+0 -22917-2 0  2574
2 53837  53.1592 173.8978 0001394  92.2244  16.1587 15.08856308    19

Śledź STARLINK-4776 w czasie rzeczywistym z AllMySat

Download on the App Store